Location: Newark
(12.4436°N, 0.6167°W)
Time: 00:03:54
(UTC+00:00)

Vanguard 1 - Pass Details

Date: 12 December 2019
Orbit: 651 x 3832 km, 34.2° (Epoch: 17 January)

Event Time Altitude Azimuth Distance (km) Brightness Sun altitude
Rises 08:30:44 0° 302° (WNW) 7,653 14.1 28.5°
Reaches altitude 10° 08:37:08 10° 310° (NW) 6,268 13.7 29.8°
Maximum altitude 08:53:33 40° 14° (NNE) 3,031 12.7 33.0°
Drops below altitude 10° 09:03:00 10° 81° (E) 3,710 13.7 34.7°
Sets 09:05:41 0° 89° (E) 4,361 14.0 35.3°
